Location: South Range
(44.4886°N, 65.7879°W)
Time: 02:45:12
(UTC-03:00)

Iridium 56 - Visible Passes

Search period start: 27 May 2015 00:00
Search period end: 06 June 2015 00:00
Orbit: 776 x 779 km, 86.4° (Epoch: 26 May)

Date Brightness Start Highest point End Pass type
(mag) Time Alt. Az. Time Alt. Az. Time Alt. Az.
27 May 8.0 04:21:31 10° SE 04:25:12 20° E 04:29:03 10° NNE visible
28 May 8.5 03:50:33 10° E 03:51:59 11° ENE 03:53:43 10° NE visible
29 May 6.5 04:53:32 10° SSE 04:58:32 50° E 05:03:35 10° NNE visible
30 May 7.5 04:20:49 10° SE 04:25:10 28° E 04:29:38 10° NNE visible
31 May 8.1 03:48:50 10° ESE 03:51:53 16° ENE 03:55:10 10° NE visible
01 Jun 5.8 04:53:25 10° S 04:58:36 72° E 05:03:49 10° N visible
02 Jun 6.8 04:20:22 10° SSE 04:25:10 40° E 04:30:03 10° NNE visible
03 Jun 7.7 03:47:54 10° SE 03:51:50 23° E 03:55:56 10° NNE visible
04 Jun 8.2 03:16:27 10° ESE 03:18:36 13° ENE 03:21:02 10° NE visible
04 Jun 5.5 04:53:29 10° S 04:58:42 81° W 05:03:57 10° N visible
05 Jun 6.2 04:20:08 10° SSE 04:25:12 57° E 04:30:20 10° N visible
